Alamosa, CO

5:41 AM MDT on August 18, 2019 (GMT -0600)
San Luis Valley Regional / Bergman Field

Weather History for KALS - June, 2019

Change the Weather History Date:

Tuesday, June 4, 2019

  Actual Average Record
Temperature  
Mean Temperature 54 °F 56 °F  
Max Temperature 70 °F 75 °F 86 °F (1946)
Min Temperature 37 °F 38 °F 26 °F (1951)
Degree Days  
Heating Degree Days 11 9  
Month to date heating degree days 31 36  
Since 1 June heating degree days 31 36  
Since 1 July heating degree days 8456 8462  
Cooling Degree Days 0 0  
Month to date cooling degree days 0 0  
Year to date cooling degree days 0 0  
Since 1 June cooling degree days 0 0  
Growing Degree Days 4 (Base 50)    
Moisture  
Dew Point 35 °F    
Average Humidity 55    
Maximum Humidity 92    
Minimum Humidity 18    
Precipitation  
Precipitation 0.00 in 0.01 in 0.36 in (1950)
Month to date precipitation 0.14 0.06  
Year to date precipitation 4.83 2.28  
Snow  
Snow 0.00 in 0.00 in 1.20 in (1950)
Month to date snowfall 0.0 0.0  
Since 1 June snowfall 0.0 0.0  
Since 1 July snowfall 54.9 27.6  
Snow Depth 0.00 in    
Sea Level Pressure  
Sea Level Pressure 30.01 in    
Wind  
Wind Speed 7 mph (West)    
Max Wind Speed 28 mph    
Max Gust Speed 37 mph    
Visibility 10 miles    
Events      
T = Trace of Precipitation, MM = Missing Value Source: NWS Daily Summary

Daily Weather History Graph

Daily Weather History Graph

Search for Another Location

Airport or City:

Astronomy

Jun. 04, 2019 Rise Set
Actual Time 5:43 AM MDT 8:20 PM MDT
Civil Twilight 5:12 AM MDT 8:51 PM MDT
Nautical Twilight 4:34 AM MDT 9:29 PM MDT
Astronomical Twilight 3:51 AM MDT 10:12 PM MDT
Moon 6:54 AM MDT (6/4) 9:51 PM MDT (6/4)
Length of Visible Light 15h 38m
Length of Day
14h 37m
New Moon, 2% of the Moon is Illuminated
Jun 4
New Moon
Jun 10
First Quarter
Jun 17
Full
Jun 25
Last Quarter
Jul 2
New

Hourly Weather History & Observations

Time (MDT) Temp. Windchill Dew Point Humidity Pressure Visibility Wind Dir Wind Speed Gust Speed Precip Events Conditions
12:52 AM 48.0 °F - 34.0 °F 58% 29.96 in 10.0 mi WNW 4.6 mph - N/A   Partly Cloudy
1:52 AM 46.0 °F 43.9 °F 36.0 °F 68% 29.97 in 10.0 mi WNW 4.6 mph - N/A   Clear
2:52 AM 39.9 °F 35.1 °F 35.1 °F 83% 29.99 in 10.0 mi South 6.9 mph - N/A   Clear
3:52 AM 39.0 °F - 34.0 °F 82% 29.99 in 10.0 mi Calm Calm - N/A   Clear
4:52 AM 37.9 °F 34.4 °F 35.1 °F 89% 30.01 in 10.0 mi NNE 4.6 mph - N/A   Clear
5:52 AM 37.9 °F 32.7 °F 35.1 °F 89% 30.04 in 10.0 mi East 6.9 mph - N/A   Clear
6:52 AM 44.1 °F - 35.1 °F 71% 30.03 in 10.0 mi Calm Calm - N/A   Clear
7:52 AM 50.0 °F - 35.1 °F 57% 30.02 in 10.0 mi Calm Calm - N/A   Clear
8:52 AM 57.9 °F - 35.1 °F 42% 30.01 in 10.0 mi Calm Calm - N/A   Clear
9:52 AM 61.0 °F - 37.0 °F 41% 29.99 in 10.0 mi South 4.6 mph - N/A   Clear
10:52 AM 64.0 °F - 37.9 °F 38% 29.99 in 10.0 mi Variable 3.5 mph - N/A   Clear
11:52 AM 68.0 °F - 36.0 °F 31% 29.96 in 10.0 mi SW 5.8 mph - N/A   Clear
12:52 PM 69.1 °F - 35.1 °F 29% 29.96 in 10.0 mi SW 12.7 mph 18.4 mph N/A   Clear
1:52 PM 68.0 °F - 24.1 °F 19% 29.96 in 10.0 mi SW 12.7 mph 20.7 mph N/A   Mostly Cloudy
2:52 PM 69.1 °F - 24.1 °F 18% 29.96 in 10.0 mi WSW 8.1 mph 19.6 mph N/A   Scattered Clouds
3:50 PM 64.4 °F - 33.8 °F 32% 30.21 in 10.0 mi WNW 13.8 mph 34.5 mph N/A   Mostly Cloudy
3:52 PM 64.0 °F - 33.1 °F 31% 30.03 in 10.0 mi WNW 17.3 mph 34.5 mph N/A   Mostly Cloudy
3:59 PM 64.0 °F - 32.0 °F 30% 30.21 in 10.0 mi NW 10.4 mph 24.2 mph N/A   Scattered Clouds
4:52 PM 62.1 °F - 34.0 °F 35% 30.04 in 10.0 mi West 24.2 mph 38.0 mph N/A   Scattered Clouds
5:52 PM 61.0 °F - 35.1 °F 38% 30.04 in 10.0 mi WNW 20.7 mph - N/A   Clear
6:52 PM 60.1 °F - 34.0 °F 38% 30.02 in 10.0 mi WNW 17.3 mph 24.2 mph N/A   Clear
7:52 PM 60.1 °F - 34.0 °F 38% 29.99 in 10.0 mi NW 5.8 mph - N/A   Partly Cloudy
8:52 PM 53.1 °F - 39.9 °F 61% 29.99 in 10.0 mi SE 5.8 mph - N/A   Clear
9:52 PM 54.0 °F - 36.0 °F 51% 29.98 in 10.0 mi Calm Calm - N/A   Clear
10:52 PM 48.0 °F - 37.0 °F 66% 30.02 in 10.0 mi Calm Calm - N/A   Clear
11:52 PM 46.0 °F 43.1 °F 37.9 °F 73% 30.00 in 10.0 mi ESE 5.8 mph - N/A   Clear